COSMOS 2251 DEB, 34689

Orbit data source: Space-Track

COSMOS 2251 DEB, 34689 is space debris in LEO originally from a launch on Wed, 16 Jun 1993 UTC launched from the Plesetsk Missile And Space Complex (PKMTR). The debris from Iridium 33, an American commercial communications satellite, has been tracked extensively since its accidental collision with the defunct Russian satellite Cosmos 2251 in 2009. This event, occurring at high speed in low Earth orbit (LEO), generated thousands of pieces of space debris, significantly increasing the risk of further collisions. The Iridium 33 debris cloud has impacted space traffic management and orbital debris mitigation strategies, making it a subject of ongoing study in space situational awareness.

Loading next visibility...
Identifier
34689, 1993-036YK
Orbit
LEO
Country
Flag of CISCIS
Related business
Manufacturer
Unknown
Mission
Spacecraft
Bus & Motor
Unknown
Mass
Unknown
Launch date (UTC)
1993-06-16 (33 years ago)
Launch vehicle
Unknown
Launch site
Plesetsk Missile And Space Complex (PKMTR)
Object type
Payload
Rocket body
Debris
Shape & HBR
Unknown shape, 0.1 m
Radar Cross Section
Small (<0.1 m²)

Expand to show TLE details & history
Last TLE update: 9 hours ago

TLE from 9 hours ago
0 COSMOS 2251 DEB
1 34689U 93036YK  26150.82083258  .00004564  00000-0  22111-2 0  9999
2 34689  74.0887 288.6434 0220606 318.2280 195.6192 14.06797014867172
Epoch: 2026-05-30T19:41Z
TLE epoch observation values (Epoch: 2026-05-30T19:41:59.934Z)
Latitude
25.74794°
Longitude
-83.0494°
Altitude
1,027.414 km
Speed
7.262 km/s
True Right ascension
06h 43m 07s
True Declination
25° 37' 07"
Sunlit
Object was in daylight at epoch
Visualization orbit readout
Latitude
Unknown
Longitude
Unknown
Altitude
Unknown
Speed
Unknown
Apparent Right ascension
Unknown
Apparent Declination
Unknown
Sunlit
N/A
Visualization observer readout
Local Sidereal Time
14:27:39
Azimuth
Unknown
Elevation
Unknown
Doppler factor
Unknown
Orbital elements
Apogee altitude
1,027.858 km
Perigee altitude
708.149 km
Semi-major axis
7,246.14 km
Eccentricity
0.02206
Inclination
74.0887°
RAAN
288.6434°
Arg. of periapsis
318.228°
True anomaly
194.95621°
Mean anomaly
195.6192°
Eccentric anomaly
195.28597°
Mean motion
3.51871 °/min
Orbital period
102.31 mins
BSTAR
0.0022111

Documentation

Showing up to 5 results
|